Weather History for Traverse City, MI

Change the Weather History Date:

Saturday, January 19, 2013

  Actual Average Record
Temperature  
Mean Temperature 34 °F 21 °F  
Max Temperature 41 °F 27 °F 50 °F (1907)
Min Temperature 27 °F 15 °F -21 °F (1994)
Degree Days  
Heating Degree Days 31 44  
Month to date heating degree days 670 821  
Since 1 July heating degree days 3137 3629  
Moisture  
Dew Point 31 °F    
Average Humidity 73    
Maximum Humidity 92    
Minimum Humidity 54    
Precipitation  
Precipitation 0.08 in 0.09 in 0.71 in (1985)
Month to date precipitation 0.52 1.85  
Year to date precipitation 0.52 1.85  
Snow  
Snow 0.00 in - - ()
Snow Depth 1.00 in    
Sea Level Pressure  
Sea Level Pressure 29.64 in    
Wind  
Wind Speed 9 mph (WSW)    
Max Wind Speed 32 mph    
Max Gust Speed 44 mph    
Visibility 8 miles    
Events Fog , Rain , Snow    
T = Trace of Precipitation, MM = Missing Value Source: NWS Daily Summary

Daily Weather History Graph

Daily Weather History Graph

Search for Another Location

Airport:

Trip Planner

Search our weather history database for the weather conditions in past years. The results will help you decide how hot, cold, wet, or windy it might be!

Date:

Astronomy

Jan. 19, 2013 Rise Set
Actual Time 8:13 AM EST 5:33 PM EST
Civil Twilight 7:41 AM EST 6:05 PM EST
Nautical Twilight 7:05 AM EST 6:41 PM EST
Astronomical Twilight 6:30 AM EST 7:16 PM EST
Moon 12:02 PM EST (1/19) 1:43 AM EST (1/19)
Length of Visible Light 10h 24m
Length of Day
9h 19m
First Quarter, 57% of the Moon is Illuminated
Jan 19
First Quarter
Jan 26
Full
Feb 3
Last Quarter
Feb 10
New
Feb 17
First Quarter

Hourly Weather History & Observations

Time (EST) Temp. Windchill Dew Point Humidity Pressure Visibility Wind Dir Wind Speed Gust Speed Precip Events Conditions
12:53 AM 39.9 °F 35.1 °F 30.9 °F 70% 29.75 in 10.0 mi SW 6.9 mph 17.3 mph N/A   Overcast
1:53 AM 39.9 °F 36.7 °F 32.0 °F 73% 29.74 in 10.0 mi SSW 4.6 mph - N/A   Overcast
2:53 AM 41.0 °F 37.1 °F 32.0 °F 70% 29.75 in 10.0 mi WSW 5.8 mph - N/A   Overcast
3:06 AM 41.0 °F 36.4 °F 32.0 °F 70% 29.74 in 10.0 mi WSW 6.9 mph - N/A   Overcast
3:53 AM 39.9 °F 34.5 °F 32.0 °F 73% 29.75 in 10.0 mi WSW 8.1 mph - N/A   Overcast
4:07 AM 39.2 °F 33.0 °F 32.0 °F 75% 29.75 in 10.0 mi West 9.2 mph - N/A   Overcast
4:20 AM 39.2 °F 33.6 °F 32.0 °F 75% 29.74 in 10.0 mi West 8.1 mph - N/A   Overcast
4:53 AM 37.9 °F 29.6 °F 30.9 °F 76% 29.77 in 10.0 mi West 13.8 mph - N/A   Overcast
5:53 AM 36.0 °F 28.5 °F 30.0 °F 79% 29.78 in 8.0 mi West 10.4 mph - N/A   Overcast
6:53 AM 35.1 °F 27.4 °F 30.0 °F 82% 29.81 in 8.0 mi West 10.4 mph - N/A   Overcast
7:00 AM 35.6 °F 28.0 °F 28.4 °F 75% 29.79 in 8.0 mi WNW 10.4 mph - N/A   Overcast
7:31 AM 33.8 °F 27.0 °F 28.4 °F 81% 29.79 in 8.0 mi West 8.1 mph - N/A   Overcast
7:53 AM 34.0 °F 28.8 °F 28.9 °F 82% 29.81 in 8.0 mi West 5.8 mph - N/A   Overcast
8:53 AM 34.0 °F 31.0 °F 28.9 °F 82% 29.81 in 7.0 mi Variable 3.5 mph - N/A   Overcast
9:53 AM 34.0 °F - 28.9 °F 82% 29.79 in 4.0 mi Calm Calm - 0.00 in Snow Light Snow
10:53 AM 36.0 °F - 28.9 °F 76% 29.77 in 7.0 mi Calm Calm - 0.00 in   Overcast
11:53 AM 37.0 °F 33.3 °F 30.9 °F 79% 29.73 in 6.0 mi Variable 4.6 mph - 0.00 in Rain Light Rain
12:53 PM 36.0 °F - 33.1 °F 89% 29.67 in 3.0 mi Calm Calm - 0.03 in Rain Light Rain
1:37 PM 37.4 °F 33.8 °F 33.8 °F 87% 29.62 in 4.0 mi Variable 4.6 mph - 0.01 in Rain Light Rain
1:53 PM 37.9 °F 33.5 °F 35.1 °F 89% 29.61 in 6.0 mi Variable 5.8 mph - 0.01 in   Overcast
2:23 PM 39.2 °F 33.0 °F 35.6 °F 87% 29.57 in 9.0 mi South 9.2 mph - N/A   Overcast
2:53 PM 39.9 °F 36.7 °F 35.1 °F 83% 29.56 in 10.0 mi Variable 4.6 mph - N/A   Overcast
2:59 PM 39.2 °F 33.6 °F 35.6 °F 87% 29.54 in 10.0 mi SSW 8.1 mph - N/A   Overcast
3:53 PM 39.9 °F 35.1 °F 35.1 °F 83% 29.55 in 10.0 mi Variable 6.9 mph - N/A   Overcast
4:44 PM 39.2 °F 33.6 °F 33.8 °F 81% 29.51 in 10.0 mi SSW 8.1 mph 19.6 mph N/A   Overcast
4:53 PM 39.9 °F 32.9 °F 33.1 °F 77% 29.52 in 10.0 mi SSW 11.5 mph 19.6 mph N/A   Overcast
5:53 PM 39.9 °F 33.4 °F 33.1 °F 77% 29.52 in 10.0 mi SW 10.4 mph 17.3 mph 0.01 in Rain Light Rain
6:53 PM 39.0 °F 32.3 °F 34.0 °F 82% 29.51 in 10.0 mi SSW 10.4 mph 19.6 mph 0.01 in Rain Light Rain
7:53 PM 39.0 °F 32.3 °F 34.0 °F 82% 29.48 in 10.0 mi SW 10.4 mph 21.9 mph 0.01 in Rain Light Rain
8:53 PM 39.0 °F 29.3 °F 30.9 °F 73% 29.47 in 10.0 mi West 19.6 mph 35.7 mph 0.00 in   Overcast
9:53 PM 37.0 °F 28.9 °F 28.9 °F 73% 29.47 in 10.0 mi West 12.7 mph 20.7 mph N/A   Overcast
10:53 PM 37.0 °F 26.2 °F 23.0 °F 57% 29.45 in 10.0 mi West 21.9 mph 43.7 mph N/A   Mostly Cloudy
11:26 PM 33.8 °F 20.8 °F 26.6 °F 75% 29.46 in 1.2 mi WNW 26.5 mph 38.0 mph 0.00 in Snow Light Snow
11:29 PM 32.0 °F 19.5 °F 28.4 °F 87% 29.47 in 0.8 mi WNW 21.9 mph 38.0 mph 0.00 in Snow Light Snow
11:38 PM 30.2 °F 15.4 °F 26.6 °F 86% 29.48 in 0.5 mi WNW 28.8 mph 39.1 mph 0.01 in Fog , Snow Snow
11:48 PM 28.4 °F 12.3 °F 24.8 °F 86% 29.49 in 1.0 mi WNW 32.2 mph 42.6 mph 0.01 in Snow Light Snow
11:53 PM 28.0 °F 12.5 °F 21.9 °F 78% 29.52 in 1.0 mi WNW 28.8 mph 42.6 mph 0.01 in Snow Light Snow